Temperature
23 22 21 20 19 19 18 18 18 18 18 17 17 17 17 17 17 17 17 17 17 17 17 17 17 17 17 17 17 17 17 17 17 17 17 17 17 17 17 17 17 17 16
23 22 21 20 20 19 19 18 18 18 18 18 18 18 18 17 17 17 17 17 17 17 17 17 17 17 17 17 17 17 17 17 17 17 18 18 17 17 17 17 17 17 17
24 22 21 21 20 19 19 19 18 18 18 18 18 18 18 18 17 17 18 18 18 17 17 17 17 17 17 17 17 17 17 17 17 17 18 18 18 18 17 17 17 17 17
24 23 22 21 21 20 19 19 19 19 18 18 18 18 18 18 18 18 18 18 18 17 17 17 17 17 17 17 17 17 17 17 17 17 17 17 18 18 18 17 17 17 16
25 24 23 22 21 20 20 19 19 19 19 18 18 18 18 18 18 18 18 18 18 17 17 17 17 17 17 17 17 17 17 17 17 17 17 17 17 17 18 18 17 17 17
25 24 23 22 21 21 20 19 19 19 19 19 18 18 18 18 18 18 18 18 17 17 18 18 18 17 17 17 17 17 17 17 17 17 17 17 17 18 18 18 17 17 17
25 24 23 22 21 21 20 20 19 19 19 19 18 18 18 18 18 18 18 18 18 18 18 18 18 18 18 17 17 17 17 17 17 17 17 17 17 17 17 17 17 17 17
25 24 23 22 22 21 21 20 20 20 19 19 19 19 18 18 18 18 18 18 18 18 18 18 18 18 18 17 17 17 17 17 17 17 17 17 17 17 17 17 17 17 17
25 25 24 23 22 21 21 20 20 20 20 19 19 19 19 18 18 18 18 18 18 18 18 18 18 18 18 18 17 17 17 17 17 17 17 17 17 17 17 17 17 17 17
26 25 24 23 22 22 21 20 20 20 20 20 19 19 19 19 18 18 18 18 18 18 18 18 18 18 17 18 18 17 17 17 17 17 17 17 17 17 17 17 17 17 17
26 25 24 23 22 22 21 20 20 20 19 19 19 19 19 19 19 18 18 18 18 18 18 18 18 18 17 17 17 17 17 17 17 17 16 17 17 16 16 16 16 16 16
25 24 23 23 22 22 21 20 20 20 20 19 19 19 19 18 18 18 18 18 18 18 18 18 18 17 17 17 17 17 17 17 17 16 16 16 16 16 16 16 16 16 16
24 24 23 22 22 21 21 21 20 20 20 19 19 19 19 19 18 18 18 18 18 18 18 17 17 17 17 17 17 17 17 16 16 16 16 16 16 16 16 16 16 16 16
23 23 22 22 21 21 21 20 20 20 20 19 19 19 19 19 19 18 18 18 18 18 17 17 17 17 17 17 17 17 17 17 16 16 16 16 16 16 16 16 16 16 16
23 22 22 21 21 20 20 20 20 20 19 19 19 19 19 19 19 18 18 18 18 17 17 17 17 17 17 17 17 17 17 16 16 16 16 16 16 16 16 16 16 15 15
22 22 21 20 20 20 20 20 20 19 19 19 19 18 18 19 18 18 18 18 17 17 17 17 17 17 17 17 17 17 17 16 16 16 16 16 16 16 16 16 16 15 15
21 21 20 20 20 20 20 20 20 19 19 19 19 18 18 18 18 18 18 17 17 17 17 17 17 17 17 17 17 17 16 16 16 16 16 16 16 16 16 16 16 15 15
21 20 19 19 20 20 19 19 19 19 19 19 18 18 18 18 18 17 17 17 17 17 16 16 16 16 16 16 16 16 16 16 16 16 16 16 16 15 15 15 15 15 15
19 19 19 19 19 19 19 19 19 18 18 18 18 18 18 17 17 17 17 17 17 16 16 16 16 16 16 16 16 16 15 15 15 15 15 15 15 15 15 15 15 15 15
18 18 18 18 18 18 18 18 18 18 17 17 17 17 17 17 17 17 17 17 17 16 16 16 16 16 16 16 16 15 15 15 15 15 15 15 15 15 15 15 15 15 15
18 18 18 18 18 18 18 17 17 17 17 17 17 17 17 17 17 16 16 16 16 16 16 15 15 15 15 15 15 15 15 15 14 15 15 15 15 15 15 14 14 14 14
17 17 17 17 17 17 17 17 17 17 17 17 16 16 16 16 16 16 16 15 15 15 15 15 15 15 15 15 15 15 15 14 14 14 14 14 14 14 14 14 14 14 14
16 16 16 16 16 16 16 16 16 16 16 16 16 16 16 16 15 15 15 15 15 15 15 15 15 14 14 14 15 14 14 14 14 14 14 14 14 14 14 14 14 14 13
15 16 16 16 15 15 15 15 15 15 15 16 15 15 15 15 15 15 15 14 14 14 14 14 14 14 14 14 14 14 14 14 14 13 14 14 14 13 13 13 13 13 13
15 15 15 15 15 15 15 15 15 15 15 15 15 14 14 15 14 14 14 14 14 14 14 14 14 14 13 13 13 13 13 13 13 13 13 13 13 13 13 12 12 12 12
14 14 14 14 14 14 14 14 14 14 14 14 14 14 14 14 14 14 14 13 13 13 13 13 13 13 13 13 13 13 13 13 13 12 12 12 12 12 12 12 12 12 12
Wind_Speed
9 8 8 8 8 7 8 7 7 7 5 4 4 4 4 3 3 3 5 5 4 5 4 3 4 4 3 4 4 4 4 3 3 2 2 2 3 2 2 2 2 4 4
9 9 9 9 9 9 8 8 8 8 7 5 4 3 3 3 4 3 4 4 4 4 5 3 4 4 4 4 4 4 2 3 3 2 2 2 3 2 2 3 3 3 3
11 11 11 10 9 9 9 8 9 8 7 6 5 4 4 3 4 4 4 4 4 4 3 3 3 3 4 4 4 4 4 3 3 2 2 1 1 2 3 2 2 3 3
11 11 11 11 10 10 10 9 9 8 8 7 6 6 5 4 4 3 4 4 4 4 4 4 3 3 3 3 4 4 3 4 4 3 2 2 1 2 2 3 4 4 3
12 12 12 12 11 10 10 10 10 9 9 8 7 6 5 4 4 4 4 4 4 4 4 4 4 4 4 4 4 3 4 4 4 4 3 3 3 4 3 2 3 3 3
12 12 12 11 11 11 10 10 10 10 9 9 8 7 6 5 4 5 5 5 4 4 5 5 5 5 4 4 4 4 6 5 5 4 4 4 4 4 3 3 3 3 3
12 12 12 12 12 12 11 11 11 10 9 9 8 8 7 7 6 5 5 5 4 5 5 5 5 5 5 5 5 5 5 5 6 6 5 5 5 4 4 4 3 3 3
11 12 13 12 12 13 12 12 11 11 10 9 8 7 7 6 5 6 5 5 4 4 4 5 6 6 5 5 5 5 5 5 6 6 6 5 5 4 4 4 4 4 4
9 11 12 12 12 12 13 13 12 11 10 10 9 8 8 7 5 5 6 5 4 4 5 5 6 6 6 5 5 5 5 5 6 6 7 6 5 5 5 5 5 5 5
8 9 10 11 11 11 12 12 11 11 10 10 9 8 8 7 7 6 6 5 4 4 5 5 6 6 6 5 5 5 5 5 5 5 5 6 6 5 6 6 5 6 6
7 8 9 10 11 11 11 11 11 10 10 9 9 8 7 7 7 6 6 6 5 5 5 5 5 5 5 5 5 6 5 6 6 6 6 7 7 6 5 5 6 6 6
6 7 8 9 9 10 11 11 10 10 9 9 8 8 7 7 7 6 6 6 5 5 5 5 5 6 5 5 6 6 6 7 7 7 7 7 6 6 6 6 6 5 5
6 7 8 8 8 8 9 10 10 10 9 9 9 8 7 7 7 6 6 6 5 5 5 5 5 5 5 5 6 6 7 7 7 7 7 7 7 7 6 6 6 6 6
6 6 7 7 6 7 8 9 9 9 9 9 9 8 8 8 7 7 6 6 6 5 5 5 5 5 5 6 6 6 6 7 6 7 7 7 7 8 8 7 7 7 6
5 6 6 6 6 6 7 8 8 8 8 8 8 8 8 7 7 6 6 6 6 6 6 5 5 5 5 5 6 6 7 7 7 7 7 7 6 6 7 7 6 6 6
4 5 5 5 6 6 6 6 7 7 8 8 8 7 7 6 7 6 6 6 6 5 6 6 6 6 5 3 3 6 6 6 7 7 7 7 6 7 7 7 6 6 7
4 4 5 4 5 5 6 7 7 7 8 7 7 6 6 6 6 6 6 5 5 5 6 6 6 6 5 4 5 6 7 7 7 7 7 6 5 6 6 7 8 8 8
3 3 3 4 4 5 5 6 6 7 7 7 6 6 7 7 6 6 6 5 5 4 4 5 5 5 5 4 5 6 8 8 7 7 7 7 7 6 6 7 8 9 9
2 2 2 2 3 4 5 5 6 6 7 6 6 6 6 6 6 6 5 5 4 4 4 4 5 5 4 3 4 6 6 6 7 7 7 7 7 5 5 8 8 9 9
2 2 2 3 3 3 5 5 5 5 5 5 5 5 5 5 5 5 4 4 4 4 4 4 4 5 4 2 4 6 6 6 7 6 6 6 6 5 6 9 9 10 9
4 4 4 4 3 3 4 5 4 4 3 3 3 3 4 4 4 3 3 3 4 4 4 4 4 4 4 4 5 5 5 6 6 6 6 5 5 6 7 9 9 9 9
5 4 4 4 4 4 4 4 3 2 3 3 3 3 3 2 3 3 3 3 3 4 4 4 3 3 3 3 4 6 7 7 6 6 6 4 3 6 8 8 7 8 8
5 4 5 5 4 3 3 3 2 2 3 3 3 3 2 2 2 2 3 3 3 3 3 3 3 3 2 2 5 6 7 8 7 6 5 5 5 6 7 8 9 8 7
4 4 4 5 4 4 3 3 2 1 2 3 3 3 3 2 2 2 2 2 2 2 2 3 3 3 3 2 2 2 3 4 6 6 5 7 9 8 6 6 6 6 6
4 4 3 4 5 4 4 3 2 1 1 2 2 3 3 2 3 2 1 1 0 1 2 3 3 4 4 3 4 3 3 4 4 4 5 5 4 4 4 5 5 5 6
4 4 4 4 4 4 4 3 3 1 1 1 2 1 1 2 2 2 1 2 1 2 1 2 4 3 2 2 3 4 4 5 4 4 4 5 5 5 5 5 5 5 6
Wind_Direction
181 176 179 177 175 174 175 178 177 171 176 176 179 172 164 163 155 157 148 155 162 158 169 162 156 170 159 154 152 150 150 154 155 158 148 151 155 151 168 178 176 174 185
180 178 183 183 181 178 179 180 180 177 183 178 181 173 160 162 154 151 147 159 162 169 170 170 179 168 162 166 162 170 176 178 186 203 197 178 162 172 174 177 186 185 184
188 184 186 188 185 182 183 184 184 181 186 182 181 169 162 173 161 164 164 167 170 173 171 170 187 177 189 175 183 192 199 200 199 228 254 238 181 162 165 182 193 193 197
193 189 186 188 187 185 183 184 183 185 186 187 190 186 184 180 173 177 166 166 172 176 176 180 184 193 196 181 203 201 210 211 208 200 236 271 306 226 178 189 190 197 214
193 190 189 187 187 183 181 181 183 185 187 192 190 197 199 189 176 174 165 179 179 190 193 189 192 199 205 203 218 211 222 218 225 222 207 208 218 238 231 205 196 197 211
193 189 187 184 185 183 183 180 180 184 187 191 194 201 202 198 185 181 181 188 186 191 194 195 200 210 213 207 217 221 221 229 232 241 239 228 226 226 232 230 224 218 209
191 188 185 185 186 186 184 182 180 184 186 191 196 200 205 203 202 204 194 200 196 194 190 201 205 213 213 216 221 222 234 229 225 231 239 243 244 251 250 245 241 240 224
188 188 187 187 187 187 185 184 183 186 186 189 194 198 203 209 208 210 214 205 209 204 190 202 208 213 217 221 220 230 228 228 230 234 239 245 245 246 244 246 249 249 239
182 186 186 188 186 187 186 186 185 187 189 190 191 195 200 210 212 206 217 215 212 207 196 206 210 213 216 223 227 236 235 236 236 238 234 240 241 242 245 242 243 253 258
180 180 181 185 185 183 184 186 186 188 189 190 194 193 199 206 212 216 215 223 217 214 211 217 220 222 221 220 226 231 229 238 242 250 255 253 249 243 241 246 247 250 262
178 175 178 182 181 178 180 184 185 187 190 193 194 199 199 205 210 215 219 220 222 218 220 221 224 226 229 226 225 236 230 234 240 242 243 246 256 253 248 244 245 243 247
175 170 168 172 177 178 180 182 185 188 191 192 193 198 201 204 208 212 217 218 219 221 220 222 223 226 230 230 231 239 241 238 239 240 246 251 246 244 254 250 246 243 242
168 168 166 170 176 181 182 183 186 188 189 189 193 194 198 201 209 216 217 219 220 224 227 228 233 235 236 235 237 243 248 247 246 243 243 247 247 246 245 248 249 246 239
168 170 172 172 174 180 183 185 188 187 187 189 192 193 198 203 206 210 213 217 220 223 229 230 234 239 242 239 240 239 244 249 250 248 245 244 245 246 245 242 245 249 247
171 176 181 179 181 181 183 185 186 184 183 187 193 196 198 201 206 209 215 216 218 220 221 226 232 241 243 245 241 242 241 245 249 248 248 247 248 258 256 258 247 242 244
184 185 185 184 186 184 183 181 182 183 182 187 194 194 198 202 207 210 214 214 217 223 222 230 232 237 240 211 219 247 250 249 248 249 248 244 236 233 233 251 258 256 246
199 194 191 188 185 183 181 180 179 178 180 185 190 192 201 208 212 212 210 212 216 221 226 230 231 234 239 206 209 232 249 251 251 250 250 254 241 228 237 223 224 238 246
193 191 191 185 181 180 180 182 177 173 175 180 185 187 195 202 203 205 206 205 207 213 220 229 235 237 242 209 223 234 241 251 252 250 247 250 253 245 242 237 234 238 234
176 177 182 171 165 173 174 172 173 172 177 183 190 194 196 201 199 203 205 204 201 212 221 228 233 240 248 211 218 238 245 247 250 249 247 249 248 231 234 240 241 244 243
122 126 122 124 133 157 163 165 167 170 178 185 192 195 195 202 203 204 206 202 198 207 220 226 232 240 253 213 210 235 247 252 254 249 245 236 246 230 223 238 241 244 246
101 95 99 101 104 121 139 148 148 153 161 163 161 167 172 184 189 191 201 210 208 206 219 228 230 236 245 209 194 222 250 260 262 264 260 253 201 221 231 245 250 251 258
100 96 94 94 96 107 124 133 137 138 139 143 148 155 163 173 166 174 190 212 221 211 214 222 239 241 236 232 203 209 233 265 264 267 271 276 206 228 237 243 251 258 259
96 98 101 99 95 93 101 109 105 112 128 137 145 156 164 163 169 187 194 207 217 233 231 231 239 249 250 218 194 209 229 243 258 275 295 291 256 243 240 231 234 241 247
93 100 107 100 91 86 85 83 68 95 141 148 160 175 177 178 176 206 204 224 236 246 251 260 265 265 261 274 272 258 254 243 253 272 264 239 240 243 252 246 235 240 246
95 100 107 103 93 86 79 72 57 47 150 177 187 197 193 185 196 193 201 229 271 303 273 267 273 281 277 311 335 292 279 281 280 280 276 279 273 267 261 257 252 245 242
98 98 97 96 94 85 76 62 53 42 320 227 221 221 218 199 206 190 178 98 148 117 187 290 298 303 326 325 297 282 281 284 271 267 272 276 275 274 276 272 260 252 250
Height
1520 1522 1523 1524 1526 1526 1527 1529 1530 1532 1534 1535 1537 1538 1539 1540 1541 1542 1543 1544 1546 1547 1548 1550 1551 1552 1554 1554 1556 1557 1558 1559 1560 1561 1562 1562 1562 1563 1563 1564 1565 1565 1565
1518 1520 1522 1523 1524 1525 1526 1528 1529 1531 1533 1535 1537 1538 1539 1541 1542 1543 1543 1544 1546 1547 1549 1549 1551 1552 1553 1554 1555 1556 1558 1559 1560 1561 1561 1562 1564 1563 1563 1563 1564 1564 1564
1514 1517 1519 1521 1523 1524 1525 1527 1529 1531 1533 1535 1537 1538 1539 1540 1542 1542 1543 1544 1546 1547 1548 1549 1551 1551 1553 1554 1555 1556 1557 1558 1559 1560 1561 1561 1561 1562 1563 1562 1563 1563 1563
1512 1514 1517 1519 1521 1522 1524 1526 1528 1530 1532 1534 1536 1537 1539 1540 1541 1542 1544 1544 1545 1547 1548 1549 1550 1551 1552 1553 1554 1556 1556 1557 1558 1559 1559 1560 1560 1561 1561 1562 1561 1561 1561
1508 1511 1514 1516 1519 1521 1523 1525 1527 1529 1531 1533 1535 1536 1538 1540 1541 1542 1543 1544 1545 1546 1547 1548 1549 1550 1551 1552 1553 1554 1555 1556 1557 1557 1558 1558 1558 1559 1559 1559 1560 1560 1559
1505 1509 1512 1515 1517 1520 1522 1524 1525 1527 1529 1531 1533 1535 1537 1539 1540 1541 1542 1543 1544 1545 1546 1547 1548 1549 1550 1551 1551 1552 1553 1553 1554 1555 1556 1556 1557 1557 1557 1556 1556 1557 1557
1502 1506 1509 1512 1515 1517 1520 1522 1523 1525 1528 1530 1532 1533 1535 1537 1538 1540 1541 1542 1544 1544 1544 1546 1546 1547 1548 1548 1549 1550 1551 1551 1551 1552 1553 1554 1554 1555 1555 1554 1554 1554 1555
1499 1502 1506 1509 1512 1515 1517 1520 1521 1523 1526 1528 1530 1532 1534 1536 1538 1538 1540 1541 1542 1543 1543 1544 1544 1545 1546 1547 1547 1548 1548 1549 1549 1549 1550 1551 1551 1552 1552 1552 1552 1552 1552
1496 1499 1503 1506 1509 1512 1514 1517 1519 1521 1523 1526 1528 1530 1531 1533 1535 1537 1538 1539 1540 1541 1541 1542 1543 1543 1544 1545 1545 1546 1546 1546 1547 1547 1547 1548 1548 1549 1549 1549 1550 1550 1549
1494 1497 1501 1504 1507 1509 1512 1515 1517 1519 1521 1524 1526 1528 1529 1531 1533 1534 1535 1537 1538 1539 1539 1540 1541 1542 1542 1542 1543 1543 1543 1544 1544 1544 1544 1545 1546 1546 1546 1546 1546 1547 1547
1493 1496 1499 1502 1505 1507 1510 1512 1515 1517 1519 1522 1524 1526 1527 1529 1531 1532 1533 1534 1535 1536 1537 1538 1539 1539 1540 1540 1540 1541 1541 1541 1541 1542 1542 1542 1542 1542 1543 1543 1543 1543 1543
1492 1495 1497 1500 1503 1505 1508 1510 1512 1515 1517 1519 1521 1523 1525 1526 1528 1530 1531 1532 1533 1534 1535 1536 1536 1537 1537 1537 1538 1538 1539 1538 1538 1539 1539 1539 1539 1539 1539 1539 1539 1539 1539
1492 1494 1496 1498 1501 1503 1505 1508 1510 1512 1515 1517 1519 1521 1522 1524 1525 1527 1528 1529 1530 1531 1532 1533 1533 1534 1534 1534 1535 1535 1535 1536 1536 1536 1536 1536 1536 1536 1536 1535 1536 1536 1536
1490 1493 1495 1497 1499 1501 1503 1505 1507 1510 1512 1514 1516 1518 1519 1520 1522 1524 1525 1526 1527 1528 1529 1530 1530 1530 1531 1531 1531 1531 1532 1532 1532 1532 1532 1532 1532 1532 1532 1532 1532 1532 1532
1489 1491 1493 1495 1497 1499 1501 1503 1505 1507 1509 1511 1513 1515 1516 1518 1519 1521 1522 1523 1524 1525 1525 1526 1526 1527 1527 1528 1527 1528 1528 1528 1528 1528 1528 1528 1528 1528 1528 1529 1529 1528 1528
1488 1489 1491 1493 1495 1497 1498 1500 1502 1504 1506 1508 1510 1512 1514 1515 1516 1518 1519 1520 1521 1521 1522 1522 1523 1523 1524 1524 1523 1524 1524 1524 1524 1524 1524 1525 1524 1524 1524 1524 1524 1524 1524
1486 1487 1489 1491 1492 1494 1496 1497 1499 1501 1503 1505 1507 1509 1511 1512 1514 1515 1516 1516 1517 1518 1518 1519 1519 1519 1520 1519 1519 1520 1520 1520 1520 1520 1520 1521 1521 1520 1520 1520 1520 1520 1519
1485 1486 1487 1488 1490 1492 1494 1496 1497 1499 1501 1503 1505 1506 1508 1509 1510 1511 1512 1513 1514 1514 1515 1515 1516 1516 1516 1516 1516 1516 1516 1517 1516 1516 1516 1517 1516 1516 1516 1515 1515 1515 1515
1483 1484 1485 1487 1488 1490 1492 1494 1495 1497 1498 1500 1502 1503 1505 1506 1507 1508 1508 1509 1510 1511 1511 1512 1512 1512 1512 1512 1512 1512 1512 1512 1512 1512 1512 1512 1511 1511 1511 1511 1510 1509 1509
1482 1483 1484 1486 1487 1488 1490 1492 1493 1495 1496 1498 1499 1501 1502 1503 1504 1504 1506 1506 1507 1508 1509 1509 1509 1509 1508 1508 1508 1508 1508 1508 1508 1508 1507 1506 1507 1506 1506 1505 1505 1504 1504
1481 1482 1483 1484 1486 1487 1489 1490 1491 1493 1494 1496 1497 1498 1499 1500 1501 1501 1502 1503 1504 1505 1505 1505 1505 1505 1505 1505 1504 1504 1504 1504 1504 1504 1503 1502 1501 1501 1500 1500 1499 1499 1499
1480 1481 1482 1484 1485 1487 1488 1489 1490 1491 1492 1494 1495 1496 1497 1498 1499 1499 1499 1500 1501 1501 1501 1501 1501 1501 1501 1501 1500 1500 1500 1500 1499 1499 1499 1498 1496 1495 1495 1494 1494 1494 1494
1480 1481 1482 1483 1484 1486 1487 1488 1489 1490 1491 1492 1493 1493 1494 1495 1496 1497 1497 1497 1498 1499 1499 1498 1498 1498 1498 1497 1497 1496 1496 1495 1495 1494 1493 1492 1491 1490 1490 1489 1488 1488 1489
1480 1481 1482 1483 1483 1485 1486 1486 1487 1489 1490 1490 1491 1491 1492 1492 1493 1494 1495 1495 1495 1496 1496 1496 1495 1495 1495 1494 1493 1492 1492 1491 1490 1490 1489 1488 1487 1486 1485 1484 1483 1483 1483
1480 1481 1482 1482 1483 1484 1485 1485 1486 1488 1489 1489 1489 1489 1490 1490 1491 1491 1491 1492 1492 1492 1492 1492 1493 1492 1492 1491 1490 1489 1488 1487 1486 1485 1485 1484 1484 1483 1482 1480 1479 1478 1478
1480 1481 1481 1482 1483 1483 1484 1485 1485 1486 1487 1487 1487 1487 1488 1488 1488 1489 1489 1489 1489 1489 1489 1489 1489 1489 1488 1487 1486 1485 1484 1483 1482 1481 1480 1480 1480 1479 1478 1477 1475 1474 1473